This is the latest recevied weather packets stored in our database for station/object KC9GSD. If no packets are shown the sender has not sent any weather packets the latest 10 day(s).
| Time | Temp. | Humidity | Pressure | Rain* | Wind** | Luminosity | Snow |
|---|---|---|---|---|---|---|---|
| 1777546620 | 13.33° C | 97% | 1011.5 hPa | 0 mm | - | 3 W/m² | - |
| 1777546316 | 13.33° C | 97% | 1011.6 hPa | 0 mm | - | 1 W/m² | - |
| 1777546014 | 13.33° C | 97% | 1011.7 hPa | 0 mm | - | 0 W/m² | - |
| 1777545709 | 13.33° C | 97% | 1011.9 hPa | 0 mm | - | 0 W/m² | - |
| 1777545407 | 13.33° C | 96% | 1011.9 hPa | 0 mm | - | 0 W/m² | - |
| 1777545104 | 13.89° C | 96% | 1011.7 hPa | 0 mm | - | 0 W/m² | - |
| 1777544801 | 13.89° C | 97% | 1011.8 hPa | 0 mm | - | 0 W/m² | - |
| 1777544496 | 13.89° C | 96% | 1011.7 hPa | 0 mm | - | 0 W/m² | - |
| 1777544193 | 13.89° C | 97% | 1011.6 hPa | 0 mm | - | 0 W/m² | - |
| 1777543891 | 13.89° C | 97% | 1011.7 hPa | 0 mm | - | 0 W/m² | - |
| 1777543587 | 13.89° C | 97% | 1011.6 hPa | 0 mm | - | 0 W/m² | - |
| 1777543283 | 13.89° C | 97% | 1011.8 hPa | 0 mm | - | 0 W/m² | - |
| 1777542979 | 13.89° C | 96% | 1011.6 hPa | 0 mm | - | 0 W/m² | - |
| 1777542675 | 13.89° C | 96% | 1011.6 hPa | 1.78 mm | - | 0 W/m² | - |
| 1777542372 | 13.89° C | 96% | 1011.7 hPa | 4.83 mm | - | 0 W/m² | - |
| 1777542069 | 13.89° C | 96% | 1011.6 hPa | 3.05 mm | - | 0 W/m² | - |
| 1777541766 | 13.89° C | 96% | 1011.3 hPa | 1.27 mm | - | 0 W/m² | - |
| 1777541463 | 13.89° C | 96% | 1011.3 hPa | 3.05 mm | - | 0 W/m² | - |
| 1777541159 | 13.89° C | 96% | 1011.5 hPa | 3.56 mm | - | 0 W/m² | - |
| 1777540856 | 13.89° C | 96% | 1011.4 hPa | 3.05 mm | - | 0 W/m² | - |
| 1777540553 | 13.89° C | 96% | 1011.5 hPa | 4.32 mm | - | 0 W/m² | - |
| 1777540249 | 13.89° C | 96% | 1011.3 hPa | 4.83 mm | - | 0 W/m² | - |
| 1777539944 | 13.89° C | 96% | 1011.4 hPa | 1.78 mm | - | 0 W/m² | - |
| 1777539641 | 13.89° C | 96% | 1011.7 hPa | 0 mm | - | 0 W/m² | - |
| 1777539338 | 13.89° C | 96% | 1011.8 hPa | 0 mm | - | 0 W/m² | - |
* Rain latest hour (hover to see other rain measurements)
** Current wind speed in m/s (hover to see current wind gust speed)